Year,Month,Day,Hour,Minute,Value (Times are PST for temperature in C)
2009,03,13,00,00,1.90
2009,03,13,00,02,1.90
2009,03,13,00,03,1.90
2009,03,13,00,05,1.90
2009,03,13,00,06,1.90
2009,03,13,00,07,1.90
2009,03,13,00,08,1.90
2009,03,13,00,09,1.90
2009,03,13,00,10,1.80
2009,03,13,00,11,1.80
2009,03,13,00,12,1.80
2009,03,13,00,13,1.80
2009,03,13,00,14,1.80
2009,03,13,00,15,1.80
2009,03,13,00,16,1.80
2009,03,13,00,17,1.80
2009,03,13,00,18,1.80
2009,03,13,00,19,1.80
2009,03,13,00,20,1.80
2009,03,13,00,21,1.80
2009,03,13,00,22,1.80
2009,03,13,00,23,1.70
2009,03,13,00,25,1.70
2009,03,13,00,27,1.70
2009,03,13,00,28,1.70
2009,03,13,00,29,1.70
2009,03,13,00,30,1.70
2009,03,13,00,31,1.60
2009,03,13,00,32,1.60
2009,03,13,00,33,1.60
2009,03,13,00,34,1.60
2009,03,13,00,35,1.60
2009,03,13,00,36,1.60
2009,03,13,00,37,1.60
2009,03,13,00,38,1.60
2009,03,13,00,39,1.50
2009,03,13,00,40,1.50
2009,03,13,00,41,1.40
2009,03,13,00,42,1.40
2009,03,13,00,44,1.40
2009,03,13,00,45,1.40
2009,03,13,00,47,1.30
2009,03,13,00,48,1.30
2009,03,13,00,49,1.30
2009,03,13,00,50,1.30
2009,03,13,00,51,1.30
2009,03,13,00,52,1.30
2009,03,13,00,53,1.30
2009,03,13,00,54,1.30
2009,03,13,00,55,1.30
2009,03,13,00,56,1.30
2009,03,13,00,58,1.30
2009,03,13,00,59,1.30
2009,03,13,01,00,1.30
2009,03,13,01,02,1.30
2009,03,13,01,03,1.30
2009,03,13,01,04,1.30
2009,03,13,01,05,1.20
2009,03,13,01,06,1.20
2009,03,13,01,07,1.20
2009,03,13,01,08,1.20
2009,03,13,01,10,1.20
2009,03,13,01,12,1.20
2009,03,13,01,13,1.10
2009,03,13,01,14,1.10
2009,03,13,01,15,1.10
2009,03,13,01,16,1.10
2009,03,13,01,17,1.10
2009,03,13,01,18,1.10
2009,03,13,01,19,1.00
2009,03,13,01,20,1.00
2009,03,13,01,21,1.00
2009,03,13,01,22,1.00
2009,03,13,01,24,1.00
2009,03,13,01,25,0.90
2009,03,13,01,26,0.90
2009,03,13,01,27,0.90
2009,03,13,01,28,0.90
2009,03,13,01,29,0.90
2009,03,13,01,30,0.90
2009,03,13,01,31,0.90
2009,03,13,01,33,0.90
2009,03,13,01,34,0.80
2009,03,13,01,35,0.80
2009,03,13,01,36,0.80
2009,03,13,01,37,0.80
2009,03,13,01,38,0.80
2009,03,13,01,39,0.80
2009,03,13,01,40,0.80
2009,03,13,01,41,0.80
2009,03,13,01,42,0.80
2009,03,13,01,43,0.80
2009,03,13,01,44,0.80
2009,03,13,01,45,0.70
2009,03,13,01,46,0.70
2009,03,13,01,47,0.70
2009,03,13,01,48,0.70
2009,03,13,01,49,0.70
2009,03,13,01,50,0.70
2009,03,13,01,51,0.70
2009,03,13,01,52,0.70
2009,03,13,01,53,0.70
2009,03,13,01,54,0.70
2009,03,13,01,55,0.70
2009,03,13,01,56,0.70
2009,03,13,01,57,0.70
2009,03,13,01,58,0.70
2009,03,13,01,59,0.70
2009,03,13,02,00,0.70
2009,03,13,02,02,0.70
2009,03,13,02,03,0.70
2009,03,13,02,04,0.70
2009,03,13,02,05,0.70
2009,03,13,02,06,0.70
2009,03,13,02,07,0.70
2009,03,13,02,08,0.70
2009,03,13,02,09,0.70
2009,03,13,02,10,0.70
2009,03,13,02,11,0.60
2009,03,13,02,12,0.60
2009,03,13,02,13,0.60
2009,03,13,02,14,0.60
2009,03,13,02,15,0.60
2009,03,13,02,16,0.60
2009,03,13,02,17,0.60
2009,03,13,02,18,0.50
2009,03,13,02,19,0.50
2009,03,13,02,20,0.40
2009,03,13,02,21,0.40
2009,03,13,02,22,0.40
2009,03,13,02,23,0.30
2009,03,13,02,24,0.30
2009,03,13,02,25,0.30
2009,03,13,02,26,0.30
2009,03,13,02,27,0.30
2009,03,13,02,28,0.20
2009,03,13,02,29,0.20
2009,03,13,02,30,0.20
2009,03,13,02,31,0.20
2009,03,13,02,32,0.20
2009,03,13,02,33,0.10
2009,03,13,02,34,0.10
2009,03,13,02,35,0.10
2009,03,13,02,36,0.10
2009,03,13,02,37,0.10
2009,03,13,02,38,0.00
2009,03,13,02,39,0.00
2009,03,13,02,40,0.00
2009,03,13,02,42,-0.10
2009,03,13,02,43,-0.10
2009,03,13,02,44,-0.10
2009,03,13,02,45,-0.10
2009,03,13,02,46,-0.10
2009,03,13,02,47,-0.10
2009,03,13,02,48,-0.10
2009,03,13,02,49,-0.10
2009,03,13,02,50,-0.20
2009,03,13,02,51,-0.20
2009,03,13,02,52,-0.20
2009,03,13,02,53,-0.20
2009,03,13,02,54,-0.20
2009,03,13,02,55,-0.20
2009,03,13,02,56,-0.20
2009,03,13,02,57,-0.30
2009,03,13,02,58,-0.30
2009,03,13,02,59,-0.30
2009,03,13,03,00,-0.30
2009,03,13,03,02,-0.30
2009,03,13,03,03,-0.30
2009,03,13,03,04,-0.40
2009,03,13,03,05,-0.40
2009,03,13,03,06,-0.40
2009,03,13,03,07,-0.40
2009,03,13,03,15,-0.50
2009,03,13,03,16,-0.50
2009,03,13,03,17,-0.50
2009,03,13,03,18,-0.60
2009,03,13,03,19,-0.60
2009,03,13,03,20,-0.60
2009,03,13,03,21,-0.60
2009,03,13,03,23,-0.60
2009,03,13,03,24,-0.60
2009,03,13,03,25,-0.60
2009,03,13,03,26,-0.60
2009,03,13,03,27,-0.60
2009,03,13,03,28,-0.60
2009,03,13,03,29,-0.60
2009,03,13,03,30,-0.70
2009,03,13,03,31,-0.60
2009,03,13,03,32,-0.70
2009,03,13,03,33,-0.70
2009,03,13,03,34,-0.70
2009,03,13,03,35,-0.70
2009,03,13,03,36,-0.70
2009,03,13,03,37,-0.70
2009,03,13,03,38,-0.70
2009,03,13,03,39,-0.70
2009,03,13,03,40,-0.70
2009,03,13,03,41,-0.70
2009,03,13,03,42,-0.70
2009,03,13,03,43,-0.80
2009,03,13,03,44,-0.70
2009,03,13,03,45,-0.70
2009,03,13,03,46,-0.80
2009,03,13,03,47,-0.80
2009,03,13,03,48,-0.80
2009,03,13,03,49,-0.80
2009,03,13,03,50,-0.80
2009,03,13,03,51,-0.80
2009,03,13,03,52,-0.80
2009,03,13,03,53,-0.80
2009,03,13,03,54,-0.80
2009,03,13,03,55,-0.80
2009,03,13,03,56,-0.80
2009,03,13,03,57,-0.80
2009,03,13,03,58,-0.80
2009,03,13,03,59,-0.80
2009,03,13,04,00,-0.80
2009,03,13,04,02,-0.80
2009,03,13,04,03,-0.80
2009,03,13,04,04,-0.80
2009,03,13,04,05,-0.80
2009,03,13,04,06,-0.90
2009,03,13,04,07,-0.90
2009,03,13,04,08,-0.90
2009,03,13,04,09,-0.90
2009,03,13,04,10,-0.90
2009,03,13,04,12,-0.90
2009,03,13,04,13,-0.90
2009,03,13,04,14,-1.00
2009,03,13,04,15,-1.00
2009,03,13,04,17,-1.00
2009,03,13,04,18,-1.10
2009,03,13,04,19,-1.10
2009,03,13,04,20,-1.10
2009,03,13,04,21,-1.10
2009,03,13,04,22,-1.10
2009,03,13,04,23,-1.10
2009,03,13,04,24,-1.10
2009,03,13,04,25,-1.10
2009,03,13,04,26,-1.10
2009,03,13,04,27,-1.10
2009,03,13,04,28,-1.10
2009,03,13,04,29,-1.10
2009,03,13,04,30,-1.10
2009,03,13,04,31,-1.10
2009,03,13,04,32,-1.10
2009,03,13,04,33,-1.10
2009,03,13,04,34,-1.10
2009,03,13,04,35,-1.10
2009,03,13,04,36,-1.10
2009,03,13,04,37,-1.10
2009,03,13,04,38,-1.10
2009,03,13,04,39,-1.10
2009,03,13,04,40,-1.10
2009,03,13,04,41,-1.10
2009,03,13,04,42,-1.10
2009,03,13,04,43,-1.10
2009,03,13,04,44,-1.10
2009,03,13,04,45,-1.10
2009,03,13,04,46,-1.10
2009,03,13,04,47,-1.10
2009,03,13,04,48,-1.10
2009,03,13,04,49,-1.10
2009,03,13,04,50,-1.20
2009,03,13,04,51,-1.20
2009,03,13,04,52,-1.20
2009,03,13,04,53,-1.10
2009,03,13,04,54,-1.20
2009,03,13,04,55,-1.20
2009,03,13,04,56,-1.20
2009,03,13,04,57,-1.20
2009,03,13,04,58,-1.20
2009,03,13,04,59,-1.20
2009,03,13,05,00,-1.20
2009,03,13,05,02,-1.20
2009,03,13,05,03,-1.20
2009,03,13,05,04,-1.20
2009,03,13,05,05,-1.20
2009,03,13,05,06,-1.20
2009,03,13,05,07,-1.20
2009,03,13,05,08,-1.20
2009,03,13,05,09,-1.20
2009,03,13,05,10,-1.20
2009,03,13,05,11,-1.30
2009,03,13,05,12,-1.30
2009,03,13,05,13,-1.30
2009,03,13,05,14,-1.30
2009,03,13,05,15,-1.30
2009,03,13,05,16,-1.30
2009,03,13,05,18,-1.30
2009,03,13,05,19,-1.30
2009,03,13,05,20,-1.30
2009,03,13,05,21,-1.30
2009,03,13,05,22,-1.30
2009,03,13,05,23,-1.30
2009,03,13,05,24,-1.30
2009,03,13,05,25,-1.30
2009,03,13,05,26,-1.30
2009,03,13,05,27,-1.30
2009,03,13,05,29,-1.30
2009,03,13,05,30,-1.30
2009,03,13,05,31,-1.30
2009,03,13,05,32,-1.30
2009,03,13,05,33,-1.30
2009,03,13,05,34,-1.30
2009,03,13,05,35,-1.30
2009,03,13,05,36,-1.30
2009,03,13,05,37,-1.30
2009,03,13,05,38,-1.30
2009,03,13,05,39,-1.30
2009,03,13,05,40,-1.30
2009,03,13,05,41,-1.30
2009,03,13,05,42,-1.30
2009,03,13,05,43,-1.30
2009,03,13,05,44,-1.30
2009,03,13,05,45,-1.30
2009,03,13,05,46,-1.30
2009,03,13,05,47,-1.30
2009,03,13,05,48,-1.30
2009,03,13,05,49,-1.30
2009,03,13,05,50,-1.30
2009,03,13,05,51,-1.30
2009,03,13,05,52,-1.30
2009,03,13,05,53,-1.30
2009,03,13,05,54,-1.30
2009,03,13,05,55,-1.30
2009,03,13,05,56,-1.30
2009,03,13,05,57,-1.30
2009,03,13,05,58,-1.30
2009,03,13,05,59,-1.30
2009,03,13,06,00,-1.30
2009,03,13,06,02,-1.30
2009,03,13,06,03,-1.30
2009,03,13,06,04,-1.30
2009,03,13,06,05,-1.30
2009,03,13,06,06,-1.30
2009,03,13,06,07,-1.30
2009,03,13,06,08,-1.30
2009,03,13,06,09,-1.30
2009,03,13,06,10,-1.30
2009,03,13,06,11,-1.20
2009,03,13,06,12,-1.30
2009,03,13,06,13,-1.30
2009,03,13,06,14,-1.30
2009,03,13,06,15,-1.30
2009,03,13,06,16,-1.30
2009,03,13,06,17,-1.30
2009,03,13,06,18,-1.20
2009,03,13,06,19,-1.30
2009,03,13,06,20,-1.20
2009,03,13,06,21,-1.30
2009,03,13,06,22,-1.30
2009,03,13,06,23,-1.30
2009,03,13,06,24,-1.30
2009,03,13,06,25,-1.30
2009,03,13,06,26,-1.30
2009,03,13,06,27,-1.30
2009,03,13,06,28,-1.30
2009,03,13,06,30,-1.30
2009,03,13,06,31,-1.30
2009,03,13,06,32,-1.30
2009,03,13,06,33,-1.30
2009,03,13,06,34,-1.30
2009,03,13,06,35,-1.30
2009,03,13,06,36,-1.30
2009,03,13,06,37,-1.30
2009,03,13,06,38,-1.30
2009,03,13,06,40,-1.40
2009,03,13,06,41,-1.40
2009,03,13,06,42,-1.40
2009,03,13,06,43,-1.40
2009,03,13,06,45,-1.50
2009,03,13,06,46,-1.50
2009,03,13,06,47,-1.60
2009,03,13,06,48,-1.60
2009,03,13,06,49,-1.60
2009,03,13,06,50,-1.60
2009,03,13,06,51,-1.60
2009,03,13,06,52,-1.60
2009,03,13,06,53,-1.60
2009,03,13,06,54,-1.60
2009,03,13,06,55,-1.60
2009,03,13,06,56,-1.70
2009,03,13,06,57,-1.70
2009,03,13,06,58,-1.70
2009,03,13,06,59,-1.70
2009,03,13,07,00,-1.70
2009,03,13,07,02,-1.70
2009,03,13,07,03,-1.70
2009,03,13,07,04,-1.70
2009,03,13,07,05,-1.70
2009,03,13,07,06,-1.70
2009,03,13,07,07,-1.70
2009,03,13,07,08,-1.70
2009,03,13,07,09,-1.70
2009,03,13,07,10,-1.70
2009,03,13,07,11,-1.70
2009,03,13,07,12,-1.80
2009,03,13,07,13,-1.70
2009,03,13,07,14,-1.80
2009,03,13,07,15,-1.80
2009,03,13,07,16,-1.80
2009,03,13,07,17,-1.80
2009,03,13,07,18,-1.80
2009,03,13,07,19,-1.80
2009,03,13,07,20,-1.80
2009,03,13,07,21,-1.80
2009,03,13,07,22,-1.80
2009,03,13,07,23,-1.80
2009,03,13,07,24,-1.80
2009,03,13,07,25,-1.80
2009,03,13,07,26,-1.80
2009,03,13,07,27,-1.80
2009,03,13,07,28,-1.80
2009,03,13,07,29,-1.80
2009,03,13,07,30,-1.80
2009,03,13,07,31,-1.80
2009,03,13,07,32,-1.80
2009,03,13,07,33,-1.80
2009,03,13,07,34,-1.80
2009,03,13,07,35,-1.80
2009,03,13,07,36,-1.70
2009,03,13,07,37,-1.80
2009,03,13,07,38,-1.70
2009,03,13,07,39,-1.80
2009,03,13,07,40,-1.80
2009,03,13,07,41,-1.80
2009,03,13,07,42,-1.80
2009,03,13,07,43,-1.70
2009,03,13,07,44,-1.70
2009,03,13,07,45,-1.80
2009,03,13,07,46,-1.70
2009,03,13,07,47,-1.70
2009,03,13,07,48,-1.70
2009,03,13,07,49,-1.70
2009,03,13,07,50,-1.80
2009,03,13,07,52,-1.70
2009,03,13,07,53,-1.70
2009,03,13,07,54,-1.80
2009,03,13,07,55,-1.70
2009,03,13,07,56,-1.70
2009,03,13,07,57,-1.70
2009,03,13,07,58,-1.70
2009,03,13,07,59,-1.70
2009,03,13,08,00,-1.70
2009,03,13,08,02,-1.70
2009,03,13,08,03,-1.70
2009,03,13,08,04,-1.70
2009,03,13,08,05,-1.70
2009,03,13,08,06,-1.70
2009,03,13,08,07,-1.70
2009,03,13,08,08,-1.70
2009,03,13,08,09,-1.70
2009,03,13,08,10,-1.70
2009,03,13,08,11,-1.70
2009,03,13,08,12,-1.70
2009,03,13,08,13,-1.70
2009,03,13,08,14,-1.70
2009,03,13,08,15,-1.70
2009,03,13,08,16,-1.70
2009,03,13,08,17,-1.70
2009,03,13,08,18,-1.70
2009,03,13,08,19,-1.70
2009,03,13,08,20,-1.70
2009,03,13,08,21,-1.60
2009,03,13,08,22,-1.60
2009,03,13,08,23,-1.60
2009,03,13,08,24,-1.60
2009,03,13,08,25,-1.60
2009,03,13,08,26,-1.50
2009,03,13,08,27,-1.50
2009,03,13,08,28,-1.40
2009,03,13,08,29,-1.40
2009,03,13,08,30,-1.40
2009,03,13,08,31,-1.30
2009,03,13,08,32,-1.30
2009,03,13,08,33,-1.30
2009,03,13,08,34,-1.20
2009,03,13,08,35,-1.20
2009,03,13,08,36,-1.20
2009,03,13,08,37,-1.10
2009,03,13,08,38,-1.10
2009,03,13,08,39,-1.10
2009,03,13,08,40,-1.00
2009,03,13,08,41,-1.00
2009,03,13,08,42,-0.90
2009,03,13,08,43,-0.90
2009,03,13,08,44,-0.80
2009,03,13,08,45,-0.80
2009,03,13,08,46,-0.80
2009,03,13,08,47,-0.70
2009,03,13,08,48,-0.70
2009,03,13,08,49,-0.70
2009,03,13,08,50,-0.60
2009,03,13,08,51,-0.60
2009,03,13,08,52,-0.60
2009,03,13,08,53,-0.50
2009,03,13,08,54,-0.40
2009,03,13,08,55,-0.40
2009,03,13,08,56,-0.40
2009,03,13,08,57,-0.30
2009,03,13,08,58,-0.30
2009,03,13,08,59,-0.30
2009,03,13,09,00,-0.20
2009,03,13,09,02,-0.20
2009,03,13,09,03,-0.10
2009,03,13,09,04,-0.10
2009,03,13,09,05,-0.10
2009,03,13,09,06,0.00
2009,03,13,09,07,0.00
2009,03,13,09,08,0.00
2009,03,13,09,09,0.10
2009,03,13,09,10,0.10
2009,03,13,09,11,0.10
2009,03,13,09,12,0.20
2009,03,13,09,13,0.20
2009,03,13,09,14,0.20
2009,03,13,09,15,0.30
2009,03,13,09,16,0.30
2009,03,13,09,17,0.30
2009,03,13,09,18,0.30
2009,03,13,09,19,0.40
2009,03,13,09,20,0.40
2009,03,13,09,21,0.40
2009,03,13,09,22,0.40
2009,03,13,09,23,0.50
2009,03,13,09,24,0.50
2009,03,13,09,25,0.50
2009,03,13,09,26,0.50
2009,03,13,09,28,0.40
2009,03,13,09,29,0.40
2009,03,13,09,30,0.40
2009,03,13,09,31,0.40
2009,03,13,09,32,0.40
2009,03,13,09,33,0.40
2009,03,13,09,34,0.40
2009,03,13,09,35,0.40
2009,03,13,09,36,0.40
2009,03,13,09,37,0.40
2009,03,13,09,38,0.40
2009,03,13,09,39,0.40
2009,03,13,09,40,0.40
2009,03,13,09,41,0.40
2009,03,13,09,42,0.40
2009,03,13,09,43,0.40
2009,03,13,09,44,0.50
2009,03,13,09,45,0.50
2009,03,13,09,46,0.60
2009,03,13,09,47,0.60
2009,03,13,09,49,0.70
2009,03,13,09,50,0.70
2009,03,13,09,51,0.80
2009,03,13,09,52,0.80
2009,03,13,09,53,0.90
2009,03,13,09,54,0.90
2009,03,13,09,55,1.00
2009,03,13,09,56,1.10
2009,03,13,09,57,1.20
2009,03,13,09,58,1.20
2009,03,13,09,59,1.30
2009,03,13,10,00,1.30
2009,03,13,10,02,1.30
2009,03,13,10,03,1.30
2009,03,13,10,04,1.40
2009,03,13,10,05,1.50
2009,03,13,10,06,1.60
2009,03,13,10,07,1.60
2009,03,13,10,08,1.60
2009,03,13,10,09,1.60
2009,03,13,10,10,1.70
2009,03,13,10,11,1.70
2009,03,13,10,12,1.70
2009,03,13,10,13,1.70
2009,03,13,10,14,1.70
2009,03,13,10,15,1.70
2009,03,13,10,16,1.80
2009,03,13,10,17,1.80
2009,03,13,10,18,1.80
2009,03,13,10,19,1.90
2009,03,13,10,20,2.00
2009,03,13,10,21,2.00
2009,03,13,10,22,2.10
2009,03,13,10,23,2.10
2009,03,13,10,24,2.10
2009,03,13,10,25,2.10
2009,03,13,10,26,2.10
2009,03,13,10,27,2.10
2009,03,13,10,28,2.10
2009,03,13,10,29,2.10
2009,03,13,10,30,2.10
2009,03,13,10,31,2.10
2009,03,13,10,32,2.10
2009,03,13,10,33,2.10
2009,03,13,10,34,2.10
2009,03,13,10,35,2.20
2009,03,13,10,36,2.20
2009,03,13,10,37,2.30
2009,03,13,10,38,2.30
2009,03,13,10,39,2.40
2009,03,13,10,40,2.40
2009,03,13,10,41,2.50
2009,03,13,10,42,2.60
2009,03,13,10,43,2.70
2009,03,13,10,44,2.70
2009,03,13,10,45,2.80
2009,03,13,10,46,2.90
2009,03,13,10,47,3.10
2009,03,13,10,48,3.20
2009,03,13,10,49,3.30
2009,03,13,10,50,3.30
2009,03,13,10,51,3.40
2009,03,13,10,52,3.60
2009,03,13,10,53,3.70
2009,03,13,10,54,3.80
2009,03,13,10,55,3.90
2009,03,13,10,56,4.00
2009,03,13,10,57,4.10
2009,03,13,10,58,4.20
2009,03,13,10,59,4.30
2009,03,13,11,00,4.30
2009,03,13,11,02,4.50
2009,03,13,11,03,4.60
2009,03,13,11,04,4.70
2009,03,13,11,05,4.70
2009,03,13,11,06,4.80
2009,03,13,11,07,4.80
2009,03,13,11,08,4.90
2009,03,13,11,09,4.90
2009,03,13,11,10,5.00
2009,03,13,11,11,5.00
2009,03,13,11,12,5.00
2009,03,13,11,13,5.00
2009,03,13,11,14,5.10
2009,03,13,11,15,5.10
2009,03,13,11,16,5.10
2009,03,13,11,17,5.20
2009,03,13,11,18,5.20
2009,03,13,11,19,5.30
2009,03,13,11,20,5.30
2009,03,13,11,21,5.40
2009,03,13,11,22,5.50
2009,03,13,11,23,5.60
2009,03,13,11,24,5.70
2009,03,13,11,25,5.70
2009,03,13,11,26,5.70
2009,03,13,11,27,5.70
2009,03,13,11,28,5.80
2009,03,13,11,29,5.80
2009,03,13,11,30,5.90
2009,03,13,11,31,5.90
2009,03,13,11,32,5.90
2009,03,13,11,33,6.00
2009,03,13,11,34,6.10
2009,03,13,11,35,6.10
2009,03,13,11,36,6.20
2009,03,13,11,37,6.20
2009,03,13,11,38,6.20
2009,03,13,11,40,6.30
2009,03,13,11,41,6.30
2009,03,13,11,42,6.30
2009,03,13,11,43,6.40
2009,03,13,11,44,6.40
2009,03,13,11,45,6.40
2009,03,13,11,46,6.50
2009,03,13,11,47,6.60
2009,03,13,11,48,6.60
2009,03,13,11,49,6.60
2009,03,13,11,50,6.70
2009,03,13,11,51,6.70
2009,03,13,11,52,6.70
2009,03,13,11,53,6.80
2009,03,13,11,54,6.80
2009,03,13,11,55,6.80
2009,03,13,11,56,6.80
2009,03,13,11,57,6.90
2009,03,13,11,58,6.90
2009,03,13,11,59,6.90
2009,03,13,12,00,7.00
2009,03,13,12,02,7.10
2009,03,13,12,03,7.10
2009,03,13,12,04,7.20
2009,03,13,12,05,7.20
2009,03,13,12,07,7.20
2009,03,13,12,08,7.30
2009,03,13,12,09,7.30
2009,03,13,12,10,7.40
2009,03,13,12,11,7.40
2009,03,13,12,12,7.50
2009,03,13,12,13,7.60
2009,03,13,12,14,7.70
2009,03,13,12,15,7.70
2009,03,13,12,16,7.80
2009,03,13,12,17,7.80
2009,03,13,12,18,7.80
2009,03,13,12,19,7.90
2009,03,13,12,20,7.90
2009,03,13,12,21,7.90
2009,03,13,12,22,7.80
2009,03,13,12,23,7.70
2009,03,13,12,24,7.70
2009,03,13,12,25,7.70
2009,03,13,12,26,7.60
2009,03,13,12,27,7.60
2009,03,13,12,28,7.60
2009,03,13,12,29,7.70
2009,03,13,12,30,7.70
2009,03,13,12,31,7.70
2009,03,13,12,33,7.80
2009,03,13,12,34,7.90
2009,03,13,12,35,7.90
2009,03,13,12,36,8.00
2009,03,13,12,37,8.10
2009,03,13,12,38,8.10
2009,03,13,12,39,8.20
2009,03,13,12,40,8.30
2009,03,13,12,41,8.40
2009,03,13,12,42,8.40
2009,03,13,12,43,8.60
2009,03,13,12,44,8.70
2009,03,13,12,45,8.80
2009,03,13,12,46,8.80
2009,03,13,12,47,8.90
2009,03,13,12,48,9.10
2009,03,13,12,49,9.20
2009,03,13,12,50,9.20
2009,03,13,12,51,9.30
2009,03,13,12,52,9.30
2009,03,13,12,53,9.30
2009,03,13,12,54,9.30
2009,03,13,12,55,9.30
2009,03,13,12,56,9.40
2009,03,13,12,57,9.40
2009,03,13,12,58,9.50
2009,03,13,12,59,9.50
2009,03,13,13,00,9.50
2009,03,13,13,02,9.40
2009,03,13,13,03,9.40
2009,03,13,13,04,9.40
2009,03,13,13,05,9.40
2009,03,13,13,06,9.40
2009,03,13,13,07,9.30
2009,03,13,13,08,9.30
2009,03,13,13,09,9.20
2009,03,13,13,10,9.20
2009,03,13,13,11,9.20
2009,03,13,13,12,9.20
2009,03,13,13,13,9.20
2009,03,13,13,14,9.30
2009,03,13,13,15,9.40
2009,03,13,13,16,9.40
2009,03,13,13,17,9.60
2009,03,13,13,18,9.60
2009,03,13,13,19,9.60
2009,03,13,13,20,9.60
2009,03,13,13,21,9.60
2009,03,13,13,22,9.60
2009,03,13,13,23,9.70
2009,03,13,13,24,9.70
2009,03,13,13,25,9.70
2009,03,13,13,26,9.70
2009,03,13,13,27,9.80
2009,03,13,13,28,9.80
2009,03,13,13,29,9.80
2009,03,13,13,30,9.80
2009,03,13,13,31,9.80
2009,03,13,13,32,9.80
2009,03,13,13,33,9.80
2009,03,13,13,34,9.70
2009,03,13,13,35,9.70
2009,03,13,13,36,9.70
2009,03,13,13,37,9.70
2009,03,13,13,38,9.70
2009,03,13,13,39,9.70
2009,03,13,13,40,9.80
2009,03,13,13,41,9.90
2009,03,13,13,42,9.90
2009,03,13,13,43,10.00
2009,03,13,13,44,10.10
2009,03,13,13,45,10.10
2009,03,13,13,46,10.20
2009,03,13,13,47,10.30
2009,03,13,13,48,10.30
2009,03,13,13,49,10.30
2009,03,13,13,50,10.40
2009,03,13,13,51,10.40
2009,03,13,13,52,10.40
2009,03,13,13,53,10.50
2009,03,13,13,54,10.60
2009,03,13,13,55,10.60
2009,03,13,13,56,10.60
2009,03,13,13,57,10.60
2009,03,13,13,58,10.60
2009,03,13,13,59,10.70
2009,03,13,14,00,10.80
2009,03,13,14,02,10.90
2009,03,13,14,03,11.00
2009,03,13,14,04,11.10
2009,03,13,14,05,11.10
2009,03,13,14,06,11.20
2009,03,13,14,07,11.30
2009,03,13,14,08,11.40
2009,03,13,14,09,11.70
2009,03,13,14,10,11.90
2009,03,13,14,11,12.10
2009,03,13,14,12,12.20
2009,03,13,14,13,12.40
2009,03,13,14,14,12.50
2009,03,13,14,15,12.60
2009,03,13,14,16,12.70
2009,03,13,14,17,12.80
2009,03,13,14,18,12.80
2009,03,13,14,19,12.90
2009,03,13,14,21,13.00
2009,03,13,14,22,13.10
2009,03,13,14,23,13.10
2009,03,13,14,24,13.10
2009,03,13,14,25,13.10
2009,03,13,14,26,13.20
2009,03,13,14,27,13.20
2009,03,13,14,28,13.20
2009,03,13,14,29,13.20
2009,03,13,14,30,13.20
2009,03,13,14,31,13.30
2009,03,13,14,32,13.30
2009,03,13,14,33,13.40
2009,03,13,14,34,13.40
2009,03,13,14,35,13.30
2009,03,13,14,36,13.30
2009,03,13,14,37,13.30
2009,03,13,14,38,13.30
2009,03,13,14,39,13.20
2009,03,13,14,40,13.20
2009,03,13,14,41,13.20
2009,03,13,14,42,13.20
2009,03,13,14,43,13.10
2009,03,13,14,44,13.10
2009,03,13,14,45,13.00
2009,03,13,14,46,12.90
2009,03,13,14,47,12.90
2009,03,13,14,48,12.90
2009,03,13,14,49,12.90
2009,03,13,14,50,12.80
2009,03,13,14,51,12.80
2009,03,13,14,52,12.80
2009,03,13,14,53,12.80
2009,03,13,14,54,12.80
2009,03,13,14,55,12.80
2009,03,13,14,56,12.80
2009,03,13,14,57,12.80
2009,03,13,14,58,12.80
2009,03,13,14,59,12.80
2009,03,13,15,00,12.90
2009,03,13,15,02,12.90
2009,03,13,15,03,12.90
2009,03,13,15,04,12.90
2009,03,13,15,05,12.90
2009,03,13,15,07,12.80
2009,03,13,15,08,12.80
2009,03,13,15,09,12.90
2009,03,13,15,10,12.90
2009,03,13,15,11,12.90
2009,03,13,15,12,13.10
2009,03,13,15,13,13.10
2009,03,13,15,14,13.20
2009,03,13,15,15,13.20
2009,03,13,15,16,13.20
2009,03,13,15,17,13.20
2009,03,13,15,18,13.20
2009,03,13,15,19,13.20
2009,03,13,15,20,13.20
2009,03,13,15,21,13.20
2009,03,13,15,22,13.30
2009,03,13,15,23,13.30
2009,03,13,15,24,13.30
2009,03,13,15,25,13.30
2009,03,13,15,26,13.30
2009,03,13,15,27,13.30
2009,03,13,15,28,13.30
2009,03,13,15,29,13.30
2009,03,13,15,30,13.30
2009,03,13,15,31,13.30
2009,03,13,15,32,13.30
2009,03,13,15,33,13.30
2009,03,13,15,34,13.30
2009,03,13,15,35,13.20
2009,03,13,15,36,13.20
2009,03,13,15,37,13.20
2009,03,13,15,38,13.20
2009,03,13,15,39,13.20
2009,03,13,15,40,13.10
2009,03,13,15,41,13.10
2009,03,13,15,42,13.10
2009,03,13,15,43,13.10
2009,03,13,15,44,13.10
2009,03,13,15,45,13.10
2009,03,13,15,46,13.10
2009,03,13,15,47,13.00
2009,03,13,15,48,12.90
2009,03,13,15,49,12.90
2009,03,13,15,50,12.90
2009,03,13,15,51,13.00
2009,03,13,15,52,13.10
2009,03,13,15,53,13.00
2009,03,13,15,54,12.90
2009,03,13,15,55,12.90
2009,03,13,15,56,12.90
2009,03,13,15,57,12.90
2009,03,13,15,58,12.80
2009,03,13,15,59,12.80
2009,03,13,16,00,12.80
2009,03,13,16,02,12.70
2009,03,13,16,03,12.70
2009,03,13,16,04,12.70
2009,03,13,16,05,12.70
2009,03,13,16,06,12.70
2009,03,13,16,07,12.70
2009,03,13,16,08,12.70
2009,03,13,16,09,12.70
2009,03,13,16,10,12.70
2009,03,13,16,11,12.70
2009,03,13,16,12,12.70
2009,03,13,16,13,12.70
2009,03,13,16,14,12.70
2009,03,13,16,15,12.60
2009,03,13,16,16,12.60
2009,03,13,16,17,12.50
2009,03,13,16,18,12.50
2009,03,13,16,19,12.40
2009,03,13,16,20,12.40
2009,03,13,16,21,12.30
2009,03,13,16,22,12.30
2009,03,13,16,23,12.30
2009,03,13,16,24,12.20
2009,03,13,16,25,12.20
2009,03,13,16,26,12.10
2009,03,13,16,27,12.10
2009,03,13,16,28,12.00
2009,03,13,16,29,12.00
2009,03,13,16,30,11.90
2009,03,13,16,31,11.90
2009,03,13,16,32,11.90
2009,03,13,16,33,11.90
2009,03,13,16,34,11.90
2009,03,13,16,35,11.90
2009,03,13,16,36,11.90
2009,03,13,16,37,11.90
2009,03,13,16,38,11.90
2009,03,13,16,39,11.90
2009,03,13,16,40,11.90
2009,03,13,16,41,11.80
2009,03,13,16,42,11.80
2009,03,13,16,43,11.80
2009,03,13,16,44,11.70
2009,03,13,16,45,11.70
2009,03,13,16,46,11.70
2009,03,13,16,47,11.60
2009,03,13,16,48,11.60
2009,03,13,16,55,11.30
2009,03,13,16,56,11.20
2009,03,13,16,57,11.20
2009,03,13,16,58,11.10
2009,03,13,16,59,11.10
2009,03,13,17,00,11.00
2009,03,13,17,02,10.90
2009,03,13,17,03,10.80
2009,03,13,17,04,10.80
2009,03,13,17,05,10.80
2009,03,13,17,06,10.80
2009,03,13,17,07,10.80
2009,03,13,17,08,10.70
2009,03,13,17,10,10.70
2009,03,13,17,11,10.70
2009,03,13,17,12,10.60
2009,03,13,17,13,10.60
2009,03,13,17,14,10.60
2009,03,13,17,15,10.60
2009,03,13,17,16,10.50
2009,03,13,17,18,10.40
2009,03,13,17,19,10.40
2009,03,13,17,20,10.40
2009,03,13,17,21,10.30
2009,03,13,17,22,10.30
2009,03,13,17,23,10.30
2009,03,13,17,24,10.30
2009,03,13,17,25,10.20
2009,03,13,17,26,10.20
2009,03,13,17,28,10.10
2009,03,13,17,29,10.10
2009,03,13,17,30,10.10
2009,03,13,17,31,10.10
2009,03,13,17,32,10.00
2009,03,13,17,33,10.00
2009,03,13,17,34,9.90
2009,03,13,17,35,9.90
2009,03,13,17,36,9.90
2009,03,13,17,37,9.80
2009,03,13,17,38,9.80
2009,03,13,17,39,9.80
2009,03,13,17,40,9.80
2009,03,13,17,41,9.70
2009,03,13,17,42,9.70
2009,03,13,17,43,9.70
2009,03,13,17,44,9.60
2009,03,13,17,45,9.50
2009,03,13,17,46,9.40
2009,03,13,17,47,9.40
2009,03,13,17,48,9.30
2009,03,13,17,49,9.30
2009,03,13,17,51,9.20
2009,03,13,17,52,9.20
2009,03,13,17,53,9.10
2009,03,13,17,54,9.10
2009,03,13,17,55,9.10
2009,03,13,17,56,9.00
2009,03,13,17,57,9.00
2009,03,13,17,58,8.90
2009,03,13,17,59,8.90
2009,03,13,18,00,8.90
2009,03,13,18,02,8.80
2009,03,13,18,03,8.80
2009,03,13,18,04,8.80
2009,03,13,18,05,8.80
2009,03,13,18,06,8.70
2009,03,13,18,07,8.70
2009,03,13,18,08,8.70
2009,03,13,18,09,8.70
2009,03,13,18,10,8.70
2009,03,13,18,11,8.70
2009,03,13,18,12,8.60
2009,03,13,18,13,8.60
2009,03,13,18,14,8.60
2009,03,13,18,15,8.60
2009,03,13,18,16,8.50
2009,03,13,18,17,8.50
2009,03,13,18,19,8.40
2009,03,13,18,20,8.40
2009,03,13,18,21,8.30
2009,03,13,18,22,8.30
2009,03,13,18,23,8.30
2009,03,13,18,24,8.30
2009,03,13,18,25,8.20
2009,03,13,18,26,8.20
2009,03,13,18,27,8.20
2009,03,13,18,28,8.10
2009,03,13,18,29,8.10
2009,03,13,18,30,8.10
2009,03,13,18,31,8.00
2009,03,13,18,32,7.90
2009,03,13,18,33,7.90
2009,03,13,18,34,7.80
2009,03,13,18,35,7.80
2009,03,13,18,36,7.70
2009,03,13,18,37,7.70
2009,03,13,18,38,7.70
2009,03,13,18,39,7.60
2009,03,13,18,40,7.60
2009,03,13,18,41,7.60
2009,03,13,18,42,7.50
2009,03,13,18,43,7.40
2009,03,13,18,44,7.40